When you browse on this site, cookies collect data to enhance your experience and personalize the content and advertising you see.
Visit our Privacy Policy to learn more. By continuing to use the site, you agree to this use of cookies and data.

Meteo pe oră la Dublin

Astăzi, 29 Septembrie, Marţi

Timp Temperatura Precipitaţii Vânt Presiune Umiditate
00:00 +6°C° 0 mm 2 m/s 746 mmHg 95%
01:00 +6°C° 0 mm 2 m/s 746 mmHg 95%
02:00 +6°C° 0 mm 2 m/s 745 mmHg 94%
03:00 +5°C° 0 mm 2 m/s 745 mmHg 94%
04:00 +5°C° 0 mm 2 m/s 745 mmHg 94%
05:00 +5°C° 0 mm 2 m/s 745 mmHg 94%
06:00 +5°C° 0 mm 2 m/s 746 mmHg 94%
07:00 +6°C° 0 mm 2 m/s 746 mmHg 90%
08:00 +8°C° 0 mm 2 m/s 746 mmHg 86%
09:00 +10°C° 0 mm 1 m/s 746 mmHg 82%
10:00 +10°C° 0 mm 2 m/s 745 mmHg 75%
11:00 +13°C° 0 mm 2 m/s 745 mmHg 69%
12:00 +13°C° 0 mm 3 m/s 745 mmHg 62%
13:00 +13°C° 0 mm 3 m/s 744 mmHg 64%
14:00 +13°C° 0 mm 4 m/s 744 mmHg 65%
15:00 +13°C° 0 mm 4 m/s 744 mmHg 67%
16:00 +12°C° 0 mm 4 m/s 743 mmHg 71%
17:00 +11°C° 0 mm 4 m/s 743 mmHg 75%
18:00 +10°C° 0 mm 4 m/s 742 mmHg 79%
19:00 +8°C° 0 mm 4 m/s 742 mmHg 82%
20:00 +8°C° 0 mm 5 m/s 741 mmHg 84%
21:00 +7°C° 0 mm 5 m/s 741 mmHg 87%
22:00 +7°C° 0 mm 5 m/s 740 mmHg 86%
23:00 +8°C° 0 mm 6 m/s 739 mmHg 84%

Mâine, 30 Septembrie, Miercuri

Timp Temperatura Precipitaţii Vânt Presiune Umiditate
00:00 +9°C° 0 mm 6 m/s 738 mmHg 83%
01:00 +9°C° 0.2 mm 7 m/s 737 mmHg 85%
02:00 +9°C° 0.2 mm 7 m/s 736 mmHg 88%
03:00 +9°C° 0.2 mm 8 m/s 735 mmHg 90%
04:00 +10°C° 0.7 mm 8 m/s 734 mmHg 91%
05:00 +10°C° 0.7 mm 8 m/s 733 mmHg 93%
06:00 +11°C° 0.7 mm 8 m/s 732 mmHg 94%
07:00 +10°C° 0.6 mm 7 m/s 732 mmHg 93%
08:00 +10°C° 0.6 mm 6 m/s 732 mmHg 93%
09:00 +10°C° 0.6 mm 5 m/s 731 mmHg 93%
10:00 +10°C° 0 mm 5 m/s 731 mmHg 89%
11:00 +12°C° 0 mm 5 m/s 731 mmHg 86%
12:00 +13°C° 0 mm 5 m/s 731 mmHg 82%
13:00 +11°C° 0.1 mm 6 m/s 731 mmHg 83%
14:00 +10°C° 0.1 mm 7 m/s 732 mmHg 84%
15:00 +9°C° 0.1 mm 7 m/s 732 mmHg 85%
16:00 +8°C° 0.1 mm 7 m/s 732 mmHg 86%
17:00 +8°C° 0.1 mm 6 m/s 732 mmHg 88%
18:00 +7°C° 0.1 mm 6 m/s 732 mmHg 89%
19:00 +5°C° 0.1 mm 6 m/s 733 mmHg 91%
20:00 +6°C° 0.1 mm 5 m/s 733 mmHg 92%
21:00 +5°C° 0.1 mm 5 m/s 733 mmHg 94%
22:00 +4°C° 0 mm 4 m/s 733 mmHg 94%
23:00 +3°C° 0 mm 4 m/s 733 mmHg 93%

Poimâine, 1 Octombrie, Joi

Timp Temperatura Precipitaţii Vânt Presiune Umiditate
00:00 +3°C° 0 mm 4 m/s 733 mmHg 93%
01:00 +3°C° 0 mm 4 m/s 733 mmHg 94%
02:00 +2°C° 0 mm 3 m/s 733 mmHg 94%
03:00 +2°C° 0 mm 3 m/s 733 mmHg 95%
04:00 +2°C° 0 mm 3 m/s 732 mmHg 94%
05:00 +2°C° 0 mm 3 m/s 732 mmHg 94%
06:00 +2°C° 0 mm 3 m/s 732 mmHg 93%
07:00 +4°C° 0 mm 2 m/s 732 mmHg 89%
08:00 +6°C° 0 mm 2 m/s 731 mmHg 84%
09:00 +7°C° 0 mm 2 m/s 731 mmHg 79%
10:00 +9°C° 0 mm 2 m/s 731 mmHg 73%
11:00 +10°C° 0 mm 2 m/s 731 mmHg 67%
12:00 +12°C° 0 mm 2 m/s 730 mmHg 60%
13:00 +10°C° 0.2 mm 3 m/s 730 mmHg 66%
14:00 +10°C° 0.2 mm 3 m/s 729 mmHg 72%
15:00 +9°C° 0.2 mm 3 m/s 729 mmHg 78%
16:00 +8°C° 0.5 mm 3 m/s 729 mmHg 81%
17:00 +7°C° 0.5 mm 2 m/s 729 mmHg 84%
18:00 +6°C° 0.5 mm 2 m/s 729 mmHg 86%
19:00 +7°C° 1.4 mm 3 m/s 729 mmHg 88%
20:00 +6°C° 1.4 mm 4 m/s 729 mmHg 89%
21:00 +6°C° 1.4 mm 5 m/s 729 mmHg 91%
22:00 +5°C° 0.9 mm 6 m/s 729 mmHg 90%
23:00 +5°C° 0.9 mm 6 m/s 730 mmHg 89%

2 Octombrie, Vineri

Timp Temperatura Precipitaţii Vânt Presiune Umiditate
00:00 +5°C° 0.9 mm 7 m/s 730 mmHg 87%
01:00 +5°C° 0.5 mm 7 m/s 730 mmHg 88%
02:00 +5°C° 0.5 mm 7 m/s 730 mmHg 88%
03:00 +5°C° 0.5 mm 7 m/s 731 mmHg 88%
04:00 +5°C° 0.3 mm 7 m/s 731 mmHg 88%
05:00 +5°C° 0.3 mm 8 m/s 732 mmHg 89%
06:00 +4°C° 0.3 mm 8 m/s 732 mmHg 90%
07:00 +5°C° 0.2 mm 8 m/s 733 mmHg 88%
08:00 +6°C° 0.2 mm 8 m/s 733 mmHg 87%
09:00 +7°C° 0.2 mm 8 m/s 734 mmHg 86%
10:00 +7°C° 0 mm 8 m/s 734 mmHg 82%
11:00 +8°C° 0 mm 9 m/s 734 mmHg 79%
12:00 +10°C° 0 mm 9 m/s 735 mmHg 75%
13:00 +10°C° 0 mm 9 m/s 735 mmHg 75%
14:00 +10°C° 0 mm 9 m/s 735 mmHg 75%
15:00 +10°C° 0 mm 9 m/s 735 mmHg 74%
16:00 +10°C° 0 mm 9 m/s 736 mmHg 75%
17:00 +9°C° 0 mm 8 m/s 736 mmHg 77%
18:00 +7°C° 0 mm 8 m/s 737 mmHg 78%
19:00 +7°C° 0 mm 8 m/s 737 mmHg 80%
20:00 +6°C° 0 mm 7 m/s 737 mmHg 83%
21:00 +6°C° 0 mm 7 m/s 737 mmHg 85%
22:00 +5°C° 0 mm 6 m/s 737 mmHg 87%
23:00 +5°C° 0 mm 6 m/s 737 mmHg 89%

3 Octombrie, Sâmbătă

Timp Temperatura Precipitaţii Vânt Presiune Umiditate
00:00 +5°C° 0 mm 6 m/s 737 mmHg 92%
01:00 +5°C° 0 mm 5 m/s 737 mmHg 92%
02:00 +5°C° 0 mm 5 m/s 737 mmHg 93%
03:00 +5°C° 0 mm 5 m/s 737 mmHg 93%
04:00 +3°C° 0 mm 5 m/s 737 mmHg 94%
05:00 +3°C° 0 mm 5 m/s 737 mmHg 95%
06:00 +3°C° 0 mm 5 m/s 736 mmHg 96%
07:00 +5°C° 0 mm 5 m/s 736 mmHg 93%
08:00 +6°C° 0 mm 4 m/s 736 mmHg 90%
09:00 +7°C° 0 mm 4 m/s 736 mmHg 87%
10:00 +8°C° 0 mm 5 m/s 736 mmHg 84%
11:00 +9°C° 0 mm 5 m/s 735 mmHg 81%
12:00 +10°C° 0 mm 5 m/s 735 mmHg 78%
13:00 +10°C° 0 mm 5 m/s 735 mmHg 79%
14:00 +10°C° 0 mm 5 m/s 734 mmHg 80%
15:00 +10°C° 0 mm 5 m/s 734 mmHg 81%
16:00 +9°C° 0.3 mm 5 m/s 733 mmHg 85%
17:00 +9°C° 0.3 mm 5 m/s 733 mmHg 89%
18:00 +8°C° 0.3 mm 5 m/s 733 mmHg 93%
19:00 +7°C° 1 mm 5 m/s 733 mmHg 92%
20:00 +7°C° 1 mm 6 m/s 732 mmHg 92%
21:00 +5°C° 1 mm 6 m/s 732 mmHg 92%
22:00 +5°C° 0.2 mm 6 m/s 732 mmHg 92%
23:00 +4°C° 0.2 mm 7 m/s 731 mmHg 92%

4 Octombrie, Duminică

Timp Temperatura Precipitaţii Vânt Presiune Umiditate
00:00 +4°C° 0.2 mm 7 m/s 731 mmHg 92%
01:00 +3°C° 0 mm 7 m/s 730 mmHg 91%
02:00 +3°C° 0 mm 7 m/s 730 mmHg 90%
03:00 +1°C° 0 mm 8 m/s 729 mmHg 89%
04:00 +2°C° 0 mm 8 m/s 729 mmHg 90%
05:00 +4°C° 0 mm 8 m/s 729 mmHg 91%
06:00 +3°C° 0 mm 9 m/s 728 mmHg 91%
07:00 +5°C° 0 mm 10 m/s 728 mmHg 88%
08:00 +6°C° 0 mm 10 m/s 728 mmHg 85%
09:00 +7°C° 0 mm 11 m/s 728 mmHg 81%
10:00 +7°C° 0.4 mm 11 m/s 728 mmHg 80%
11:00 +8°C° 0.4 mm 12 m/s 728 mmHg 78%
12:00 +8°C° 0.4 mm 12 m/s 728 mmHg 76%
13:00 +8°C° 0.9 mm 12 m/s 728 mmHg 77%
14:00 +8°C° 0.9 mm 11 m/s 728 mmHg 78%
15:00 +7°C° 0.9 mm 11 m/s 729 mmHg 79%
16:00 +7°C° 0.8 mm 11 m/s 729 mmHg 80%
17:00 +7°C° 0.8 mm 10 m/s 730 mmHg 81%
18:00 +7°C° 0.8 mm 10 m/s 731 mmHg 82%
19:00 +6°C° 0.6 mm 10 m/s 731 mmHg 83%
20:00 +6°C° 0.6 mm 10 m/s 732 mmHg 83%
21:00 +6°C° 0.6 mm 10 m/s 732 mmHg 84%
22:00 +6°C° 0.3 mm 10 m/s 732 mmHg 83%
23:00 +6°C° 0.3 mm 10 m/s 733 mmHg 82%
Arată mai mult